{"data":{"norad_id":62813,"epoch":"2026-05-25T04:20:21.926112Z","epoch_age_seconds":66116,"freshness":"FRESH","line1":"1 62813U 25018H   26145.18080933  .00015567  00000+0  53642-3 0  9992","line2":"2 62813  53.1603 314.0085 0001644  86.7319 273.3870 15.30211620 74888","mean_motion":15.3021162,"eccentricity":0.0001644,"inclination_deg":53.1603,"raan_deg":314.0085,"arg_perigee_deg":86.7319,"mean_anomaly_deg":273.387,"bstar":0.00053642,"rev_number":7488,"period_min":94.104631096711,"perigee_km":474.05368903704,"apogee_km":476.30705978975,"semimajor_km":6853.3173744134,"source":"CELESTRAK","updated_at":"2026-05-25T13:38:19.774215Z"}}